Weather History for KTQH - June, 2014

Change the Weather History Date:

Thursday, June 19, 2014

  Actual Average (KMKO) Record (KMKO)
Temperature  
Mean Temperature 74 °F -  
Max Temperature 80 °F 83 °F 93 °F (2011)
Min Temperature 68 °F 64 °F 63 °F (1999)
Cooling Degree Days 9    
Growing Degree Days 24 (Base 50)    
Moisture  
Dew Point 68 °F    
Average Humidity 82    
Maximum Humidity 100    
Minimum Humidity 69    
Precipitation  
Precipitation 0.08 in - - ()
Sea Level Pressure  
Sea Level Pressure 30.04 in    
Wind  
Wind Speed 5 mph (SSE)    
Max Wind Speed 16 mph    
Max Gust Speed 23 mph    
Visibility 9 miles    
Events      
Averages and records for this station are not official NWS values.
T = Trace of Precipitation, MM = Missing Value Source: NWS Daily Summary

Daily Weather History Graph

Daily Weather History Graph

Search for Another Location

Airport or City:

Trip Planner

Search our weather history database for the weather conditions in past years. The results will help you decide how hot, cold, wet, or windy it might be!

Date:

Astronomy

Jun. 19, 2014 Rise Set
Actual Time 6:03 AM CDT 8:39 PM CDT
Civil Twilight 5:33 AM CDT 9:09 PM CDT
Nautical Twilight 4:55 AM CDT 9:47 PM CDT
Astronomical Twilight 4:13 AM CDT 10:29 PM CDT
Moon 12:55 AM CDT (6/19) 1:21 PM CDT (6/19)
Length of Visible Light 15h 36m
Length of Day
14h 36m
Waning Gibbous, 51% of the Moon is Illuminated
Jun 19
Waning Gibbous
Jun 19
Last Quarter
Jun 27
New
Jul 5
First Quarter
Jul 12
Full

Hourly Weather History & Observations

Time (CDT) Temp. Heat Index Dew Point Humidity Pressure Visibility Wind Dir Wind Speed Gust Speed Precip Events Conditions
12:15 AM 73.4 °F - 68.0 °F 83% 29.99 in 10.0 mi SE 4.6 mph - N/A   Clear
12:35 AM 73.4 °F - 68.0 °F 83% 29.99 in 10.0 mi SE 5.8 mph - N/A   Clear
12:55 AM 73.4 °F - 68.0 °F 83% 30.00 in 10.0 mi SSE 4.6 mph - N/A   Clear
1:15 AM 73.4 °F - 68.0 °F 83% 29.99 in 10.0 mi SSE 8.1 mph - N/A   Clear
1:35 AM 75.2 °F - 68.0 °F 78% 29.99 in 10.0 mi SSE 5.8 mph - N/A   Clear
1:55 AM 75.2 °F - 68.0 °F 78% 29.99 in 10.0 mi SSE 5.8 mph - N/A   Clear
2:15 AM 73.4 °F - 66.2 °F 78% 29.99 in 10.0 mi SSE 4.6 mph - N/A   Clear
2:35 AM 73.4 °F - 64.4 °F 73% 29.99 in 10.0 mi SSE 5.8 mph - N/A   Clear
2:55 AM 73.4 °F - 64.4 °F 73% 29.99 in 10.0 mi SSE 3.5 mph - N/A   Clear
3:15 AM 73.4 °F - 64.4 °F 73% 29.99 in 10.0 mi South 3.5 mph - N/A   Clear
3:35 AM 71.6 °F - 64.4 °F 78% 29.99 in 10.0 mi SSE 3.5 mph - N/A   Clear
3:55 AM 71.6 °F - 64.4 °F 78% 29.99 in 10.0 mi SE 4.6 mph - N/A   Clear
4:15 AM 71.6 °F - 64.4 °F 78% 29.99 in 10.0 mi Calm Calm - N/A   Clear
5:15 AM 71.6 °F - 64.4 °F 78% 30.00 in 10.0 mi South 5.8 mph - N/A   Clear
5:35 AM 71.6 °F - 66.2 °F 83% 30.01 in 10.0 mi South 6.9 mph - N/A   Clear
5:55 AM 71.6 °F - 66.2 °F 83% 30.01 in 10.0 mi South 8.1 mph - N/A   Clear
6:15 AM 71.6 °F - 66.2 °F 83% 30.01 in 10.0 mi South 6.9 mph - N/A   Clear
6:35 AM 71.6 °F - 66.2 °F 83% 30.02 in 10.0 mi SSE 4.6 mph - N/A   Clear
6:55 AM 73.4 °F - 66.2 °F 78% 30.02 in 10.0 mi SSE 5.8 mph - N/A   Clear
7:15 AM 73.4 °F - 66.2 °F 78% 30.03 in 10.0 mi South 6.9 mph - N/A   Clear
7:35 AM 73.4 °F - 66.2 °F 78% 30.04 in 10.0 mi South 6.9 mph - N/A   Clear
7:55 AM 73.4 °F - 66.2 °F 78% 30.05 in 10.0 mi South 4.6 mph - N/A   Clear
8:15 AM 73.4 °F - 68.0 °F 83% 30.05 in 10.0 mi South 3.5 mph - N/A   Clear
8:35 AM 73.4 °F - 68.0 °F 83% 30.06 in 10.0 mi South 5.8 mph - N/A   Clear
8:55 AM 73.4 °F - 68.0 °F 83% 30.07 in 10.0 mi SSE 6.9 mph - N/A   Clear
9:15 AM 75.2 °F - 68.0 °F 78% 30.07 in 10.0 mi South 8.1 mph - N/A   Clear
9:55 AM 77.0 °F - 68.0 °F 74% 30.07 in 10.0 mi South 11.5 mph - N/A   Clear
10:15 AM 78.8 °F - 68.0 °F 69% 30.07 in 10.0 mi SSW 9.2 mph - N/A   Scattered Clouds
10:35 AM 78.8 °F - 69.8 °F 74% 30.06 in 10.0 mi South 11.5 mph 17.3 mph N/A   Mostly Cloudy
10:55 AM 78.8 °F - 68.0 °F 69% 30.06 in 10.0 mi SSW 13.8 mph 19.6 mph N/A   Mostly Cloudy
11:15 AM 78.8 °F - 68.0 °F 69% 30.06 in 10.0 mi South 13.8 mph 18.4 mph N/A   Mostly Cloudy
11:35 AM 78.8 °F - 68.0 °F 69% 30.06 in 10.0 mi South 16.1 mph 23.0 mph N/A   Scattered Clouds
11:55 AM 80.6 °F 83.9 °F 69.8 °F 70% 30.06 in 10.0 mi South 16.1 mph 23.0 mph N/A   Scattered Clouds
12:15 PM 78.8 °F - 68.0 °F 69% 30.07 in 10.0 mi South 13.8 mph 23.0 mph N/A   Scattered Clouds
12:35 PM 78.8 °F - 69.8 °F 74% 30.07 in 10.0 mi South 12.7 mph 20.7 mph N/A   Scattered Clouds
12:55 PM 77.0 °F - 69.8 °F 78% 30.06 in 10.0 mi South 10.4 mph 17.3 mph N/A   Mostly Cloudy
1:15 PM 75.2 °F - 69.8 °F 83% 30.06 in 4.0 mi South 9.2 mph 20.7 mph N/A   Haze
1:35 PM 73.4 °F - 69.8 °F 88% 30.06 in 4.0 mi South 10.4 mph - 0.02 in   Mostly Cloudy
1:55 PM 71.6 °F - 69.8 °F 94% 30.07 in 5.0 mi SSE 12.7 mph 19.6 mph 0.02 in   Mostly Cloudy
2:15 PM 69.8 °F - 68.0 °F 94% 30.07 in 4.0 mi South 8.1 mph 18.4 mph 0.03 in   Overcast
2:35 PM 69.8 °F - 68.0 °F 94% 30.05 in 5.0 mi SSE 6.9 mph - 0.05 in   Mostly Cloudy
2:55 PM 69.8 °F - 68.0 °F 94% 30.06 in 10.0 mi SE 6.9 mph - 0.06 in   Clear
3:15 PM 69.8 °F - 68.0 °F 94% 30.09 in 10.0 mi West 5.8 mph - N/A   Clear
3:35 PM 69.8 °F - 68.0 °F 94% 30.07 in 10.0 mi Calm Calm - N/A   Clear
3:55 PM 71.6 °F - 68.0 °F 88% 30.07 in 10.0 mi Calm Calm - N/A   Clear
4:15 PM 73.4 °F - 68.0 °F 83% 30.05 in 10.0 mi ESE 3.5 mph - N/A   Clear
4:35 PM 73.4 °F - 68.0 °F 83% 30.04 in 10.0 mi ESE 5.8 mph - N/A   Clear
4:55 PM 73.4 °F - 68.0 °F 83% 30.05 in 10.0 mi Calm Calm - N/A   Clear
5:15 PM 73.4 °F - 68.0 °F 83% 30.05 in 10.0 mi SE 3.5 mph - N/A   Clear
5:35 PM 73.4 °F - 69.8 °F 88% 30.06 in 10.0 mi South 4.6 mph - N/A   Clear
5:55 PM 77.0 °F - 69.8 °F 78% 30.05 in 10.0 mi Calm Calm - N/A   Clear
6:15 PM 78.8 °F - 69.8 °F 74% 30.04 in 10.0 mi Calm Calm - N/A   Clear
6:35 PM 78.8 °F - 68.0 °F 69% 30.03 in 10.0 mi Calm Calm - N/A   Clear
6:55 PM 78.8 °F - 68.0 °F 69% 30.02 in 10.0 mi Calm Calm - N/A   Clear
7:15 PM 78.8 °F - 69.8 °F 74% 30.02 in 10.0 mi Calm Calm - N/A   Clear
7:35 PM 78.8 °F - 69.8 °F 74% 30.03 in 10.0 mi Calm Calm - N/A   Clear
7:55 PM 78.8 °F - 69.8 °F 74% 30.03 in 10.0 mi Calm Calm - N/A   Clear
8:15 PM 75.2 °F - 69.8 °F 83% 30.03 in 10.0 mi Calm Calm - N/A   Clear
8:35 PM 73.4 °F - 69.8 °F 88% 30.03 in 10.0 mi Calm Calm - N/A   Scattered Clouds
8:55 PM 73.4 °F - 69.8 °F 88% 30.03 in 10.0 mi Calm Calm - N/A   Clear
9:15 PM 71.6 °F - 69.8 °F 94% 30.04 in 10.0 mi Calm Calm - N/A   Clear
9:35 PM 71.6 °F - 69.8 °F 94% 30.04 in 10.0 mi Calm Calm - N/A   Clear
9:55 PM 69.8 °F - 69.8 °F 100% 30.05 in 10.0 mi Calm Calm - N/A   Clear
10:15 PM 69.8 °F - 68.0 °F 94% 30.06 in 10.0 mi Calm Calm - N/A   Clear
10:35 PM 69.8 °F - 68.0 °F 94% 30.06 in 10.0 mi Calm Calm - N/A   Clear
11:35 PM 68.0 °F - 68.0 °F 100% 30.06 in 7.0 mi Calm Calm - N/A   Clear
11:55 PM 69.8 °F - 68.0 °F 94% 30.06 in 4.0 mi Calm Calm - N/A   Clear